EHI
14 17 20 20 18 16 16 18 19 18 18 18 19 18 15 12 9 8 7 5 5 5 5 4 3 1 0 0 0 0 0 0 0 0 0 0 0 0 0 0 0 0 0
16 19 22 21 18 15 14 16 17 16 16 16 16 17 16 12 10 8 7 6 5 5 4 3 3 2 1 0 0 0 0 0 0 0 0 0 0 0 0 0 0 0 0
17 21 24 22 17 13 12 13 13 12 13 13 12 14 14 12 10 9 8 6 5 4 3 2 2 2 1 0 0 0 0 0 0 0 0 0 0 0 0 0 0 0 0
16 19 23 22 17 12 10 10 9 9 10 11 11 11 11 10 10 9 9 7 5 4 3 2 1 1 1 0 0 0 0 0 0 0 0 0 0 0 0 0 0 0 0
14 16 18 19 16 12 10 9 8 8 10 11 11 10 10 9 9 9 9 8 6 5 5 3 1 0 0 0 0 0 0 0 0 0 0 0 0 0 0 0 0 0 0
14 14 15 15 15 13 11 10 9 8 10 11 12 10 9 8 7 7 7 7 6 6 5 4 3 2 1 0 0 0 0 0 0 0 0 0 0 0 0 0 0 0 0
14 14 14 15 17 16 13 12 10 9 9 11 12 10 8 7 6 5 5 5 5 5 5 5 5 4 3 1 0 0 0 0 0 0 0 0 0 0 0 0 0 0 0
13 13 13 15 18 18 16 14 12 11 10 11 12 10 8 8 7 6 6 6 5 4 5 6 6 6 5 3 1 0 0 0 0 0 0 0 0 0 0 0 0 0 0
10 11 11 11 13 15 16 15 13 12 12 12 12 10 9 9 8 7 6 6 5 4 3 5 5 5 5 4 3 1 0 0 0 0 0 0 0 0 0 0 0 0 0
8 8 8 7 7 9 11 12 12 12 12 11 10 8 7 7 6 5 4 4 3 2 2 2 2 3 4 4 4 3 1 0 0 0 0 0 0 0 0 0 0 0 0
5 5 5 4 4 4 5 8 9 10 10 9 8 6 5 4 4 4 3 3 1 1 1 1 0 1 2 3 4 3 2 1 0 0 0 0 0 0 0 0 0 0 0
4 4 3 3 3 3 3 6 8 9 7 6 6 6 5 4 4 4 3 2 1 0 0 0 0 0 2 3 3 3 3 1 0 0 0 0 0 0 0 0 0 0 0
3 3 3 3 3 3 4 6 8 8 5 4 5 5 5 5 5 4 3 1 0 0 0 0 0 0 2 3 3 3 3 2 1 0 0 0 0 0 0 0 0 0 0
2 2 2 2 1 2 4 6 7 6 4 3 4 4 4 4 5 3 1 0 0 0 0 0 0 0 1 2 3 3 3 3 2 1 0 0 0 0 0 0 0 0 0
1 1 1 1 0 0 2 4 5 5 4 3 3 3 3 3 2 1 0 0 0 0 0 0 0 0 0 1 2 3 3 3 3 2 1 0 0 0 0 0 0 0 0
0 0 0 0 0 0 0 2 3 4 4 4 4 3 2 1 1 0 0 0 0 0 0 0 0 0 0 0 1 1 2 3 3 2 1 0 0 0 0 0 0 0 0
0 0 0 0 0 0 0 0 1 1 3 4 4 3 1 0 0 0 0 0 0 0 0 0 0 0 0 0 0 0 1 1 2 2 1 0 0 0 0 0 0 0 0
0 0 0 0 0 0 0 0 0 0 1 2 3 2 1 0 0 0 0 0 0 0 0 0 0 0 0 0 0 0 0 0 1 1 1 0 0 0 0 0 0 0 0
0 0 0 0 0 0 0 0 0 0 0 0 1 1 0 0 0 0 0 0 0 0 0 0 0 0 0 0 0 0 0 0 0 0 0 0 0 0 0 0 0 0 0
0 0 0 0 0 0 0 0 0 0 0 0 0 0 0 0 0 0 0 0 0 0 0 0 0 0 0 0 0 0 0 0 0 0 0 0 0 0 0 0 0 0 0
1 1 0 0 0 0 0 0 0 0 0 0 0 0 0 0 0 0 0 0 0 0 0 0 0 0 0 0 0 0 0 0 0 0 0 0 0 0 0 0 0 0 0
3 2 1 0 0 0 0 0 0 0 0 0 0 0 0 0 0 0 0 0 0 0 0 0 0 0 0 0 0 0 0 0 0 0 0 0 0 0 0 0 0 0 0
3 2 1 0 0 0 0 0 0 0 0 0 0 0 0 0 0 0 0 0 0 0 0 0 0 0 0 0 0 0 0 0 0 0 0 0 0 0 0 0 0 0 0
1 1 0 0 0 0 0 0 0 0 0 0 0 0 0 0 0 0 0 0 0 0 0 0 0 0 0 0 0 0 0 0 0 0 0 0 0 0 0 0 0 0 0
0 0 0 0 0 0 0 0 0 0 0 0 0 0 0 0 0 0 0 0 0 0 0 0 0 0 0 0 0 0 0 0 0 0 0 0 0 0 0 0 0 0 0
0 0 0 0 0 0 0 0 0 0 0 0 0 0 0 0 0 0 0 0 0 0 0 0 0 0 0 0 0 0 0 0 0 0 0 0 0 0 0 0 0 0 0
Wind_Speed
5 7 7 8 7 6 6 7 6 5 5 4 4 3 3 3 2 2 4 5 4 4 4 3 3 3 2 2 2 1 1 1 1 2 1 2 1 2 2 2 2 3 3
5 6 6 6 7 7 6 6 6 6 5 4 3 3 3 3 3 2 3 4 5 4 4 3 3 3 2 2 1 2 1 1 1 2 2 1 3 3 2 2 2 3 2
8 7 7 6 6 6 6 6 6 6 5 5 3 3 2 2 1 2 2 3 4 4 4 4 3 3 3 2 2 2 3 2 1 2 3 3 3 2 3 2 2 2 2
8 8 8 7 7 7 6 5 5 5 5 5 5 5 4 3 3 3 3 3 3 4 4 4 4 3 3 3 3 3 2 3 2 1 1 2 3 2 2 2 2 2 3
8 8 9 8 8 7 6 5 5 4 4 5 5 5 3 2 2 2 3 2 2 3 3 4 3 3 3 3 3 2 2 2 3 2 1 1 1 2 2 2 2 2 2
6 6 6 6 6 5 5 6 6 4 4 4 5 5 5 4 4 3 3 2 1 1 2 3 3 3 3 3 3 3 3 3 2 2 2 2 2 2 2 3 2 2 3
6 6 7 7 7 7 7 6 6 4 4 4 5 5 5 5 5 4 3 2 2 2 3 3 3 3 3 3 3 3 3 3 3 3 3 3 3 2 3 2 2 2 2
6 7 7 7 7 8 7 7 6 5 4 4 4 4 4 3 3 3 3 3 3 3 3 3 3 4 4 3 3 3 3 3 3 3 3 2 2 2 2 3 3 1 2
5 6 6 6 7 7 7 7 7 6 5 4 4 4 4 3 3 3 3 2 2 2 3 3 3 3 3 3 3 2 3 3 3 4 3 3 2 2 2 2 3 4 2
5 5 5 5 5 6 6 6 6 6 5 4 4 4 4 4 4 3 3 3 3 2 2 2 2 2 3 3 2 2 3 3 3 3 3 3 2 1 1 1 1 3 3
6 5 5 5 5 5 5 5 5 5 4 4 4 4 3 3 3 3 4 3 3 2 2 2 2 2 2 2 2 3 3 3 3 3 3 3 2 1 1 1 1 1 2
6 5 5 4 4 5 5 5 5 5 5 5 5 4 4 3 3 3 3 3 3 2 2 2 2 2 3 3 3 3 3 4 4 4 3 4 2 2 1 1 1 1 2
5 4 4 4 4 4 4 5 5 5 4 4 5 4 4 4 3 3 3 3 3 3 2 2 3 3 3 3 3 4 4 4 4 4 4 4 3 2 2 2 2 2 2
5 4 4 4 4 4 4 4 4 5 5 4 4 4 4 4 4 3 3 3 3 3 3 3 3 3 3 3 3 3 4 4 4 4 4 4 5 4 4 3 3 2 1
5 5 4 3 3 3 3 3 4 4 5 4 4 4 3 3 3 2 2 2 3 3 3 2 2 3 3 3 4 3 4 4 4 3 4 4 5 6 4 3 3 3 2
6 6 5 4 4 4 3 3 3 3 4 4 3 3 2 2 2 2 2 2 2 2 2 2 3 3 3 3 5 4 4 4 4 4 3 4 4 5 4 4 5 5 4
6 6 5 4 4 4 4 4 3 3 4 4 3 3 3 2 2 3 2 2 3 2 2 3 3 3 4 5 5 6 4 4 4 4 4 3 3 4 3 3 2 3 5
5 5 5 4 3 3 2 3 3 3 3 3 3 3 3 3 2 2 2 3 2 2 3 3 3 3 4 6 6 5 3 3 4 4 5 4 4 4 4 3 2 3 4
4 4 5 4 3 3 3 2 2 2 3 3 3 3 3 3 3 3 3 2 2 2 3 3 3 3 4 6 6 4 2 2 3 4 4 5 5 6 6 4 3 3 4
4 4 4 3 3 2 3 3 2 3 3 3 4 3 3 4 4 4 3 2 2 3 3 3 3 4 4 6 6 5 2 2 2 2 3 5 6 6 6 5 4 4 5
4 5 5 4 3 3 3 3 2 3 4 3 3 3 3 4 4 3 3 2 2 2 2 3 4 4 5 6 7 6 3 4 3 3 3 3 6 6 7 6 5 7 5
3 4 4 3 2 3 3 3 3 3 2 2 2 3 3 3 3 3 3 2 2 3 3 3 3 3 4 4 5 7 7 5 4 4 3 3 5 6 6 5 6 6 3
3 3 3 3 2 2 3 3 3 3 2 2 2 3 3 3 3 3 3 2 3 3 3 3 3 3 3 4 6 7 7 7 4 3 5 4 5 5 4 6 6 4 2
3 2 3 3 3 3 3 3 3 3 3 3 2 2 3 3 3 3 3 3 3 3 3 3 4 3 3 3 3 2 3 4 3 2 3 3 4 3 4 4 3 3 3
2 3 4 4 4 3 2 2 2 2 2 3 3 3 3 3 4 4 4 5 5 6 5 5 4 4 5 6 7 5 4 3 3 2 1 0 1 1 2 2 3 2 2
2 2 2 3 3 3 3 3 2 2 3 3 3 3 3 3 3 3 3 6 6 7 9 8 7 6 7 7 7 7 6 5 5 3 2 2 3 3 3 3 2 2 3
Wind_Direction
176 154 156 150 140 137 137 143 143 144 141 145 150 145 156 163 159 168 161 153 149 146 147 150 148 154 160 170 171 162 154 171 118 83 20 340 297 248 223 211 203 210 210
156 155 154 153 149 148 144 145 152 154 157 156 161 157 156 170 173 170 155 160 152 151 152 148 154 162 154 146 159 145 139 158 133 132 115 358 328 300 256 236 209 215 215
160 157 159 160 152 151 160 163 160 157 155 147 126 113 95 90 112 135 157 172 161 156 156 163 164 168 164 176 189 172 158 167 210 156 150 160 221 273 293 254 227 212 212
167 165 166 168 166 167 163 160 159 154 150 145 147 149 155 167 182 175 177 175 170 167 167 172 178 177 175 179 192 179 172 161 188 225 180 173 172 176 276 303 274 237 223
175 176 174 174 170 162 155 153 144 145 150 150 153 150 153 166 162 155 159 168 181 184 182 177 180 186 188 189 189 186 184 178 180 184 179 171 189 171 177 252 287 292 253
174 173 166 156 148 145 146 145 141 145 152 158 160 157 160 159 154 164 168 174 185 202 197 184 187 191 194 197 196 194 195 197 190 184 180 177 185 197 182 215 240 259 270
160 152 151 150 152 155 158 154 150 155 162 159 164 167 165 163 169 174 176 171 178 200 208 197 198 200 205 206 198 193 206 201 196 201 208 207 210 196 184 191 227 250 277
155 158 161 157 159 160 160 158 155 160 167 165 166 163 162 165 172 175 173 182 192 204 205 201 205 208 203 202 196 201 210 203 208 217 217 218 225 202 194 187 180 226 289
158 155 154 156 163 161 163 166 164 164 170 169 158 156 160 158 162 169 170 175 195 204 201 201 205 207 198 196 190 207 220 212 212 220 221 223 232 221 212 193 176 171 206
148 141 144 155 164 163 163 163 167 173 174 170 170 164 167 166 167 163 171 183 198 207 206 209 204 207 202 197 194 211 221 214 223 221 224 229 231 230 212 186 183 174 177
156 154 155 159 158 152 154 158 162 166 173 174 169 160 166 169 165 168 183 185 186 189 190 194 195 204 210 201 197 220 216 215 227 226 217 229 214 201 207 171 166 166 163
156 154 154 146 142 158 166 168 170 171 180 177 169 170 169 164 169 182 190 184 184 191 193 189 196 211 223 213 204 222 226 218 221 224 216 226 213 203 212 187 195 207 195
146 144 144 148 150 155 169 173 176 177 175 171 170 172 171 171 182 193 196 193 191 198 204 200 208 221 223 217 215 219 226 221 217 213 209 215 195 206 215 204 205 215 215
145 143 151 157 160 159 159 167 173 171 164 159 164 173 181 188 194 192 192 193 193 196 209 218 219 222 225 224 219 219 222 222 221 217 211 207 196 200 204 206 211 198 185
146 151 155 161 159 156 155 159 170 172 167 160 166 182 183 182 181 183 193 197 199 210 210 218 232 234 229 225 218 216 217 217 222 225 216 213 211 206 202 194 196 184 181
163 162 160 162 166 167 167 161 158 176 164 163 179 182 173 170 179 192 192 197 214 218 214 224 230 240 246 237 229 217 211 212 212 220 225 222 214 210 211 207 197 186 186
168 169 169 174 175 177 172 174 178 171 159 164 175 179 179 181 203 204 189 209 231 231 232 234 224 231 239 232 231 223 207 212 218 215 213 222 215 203 204 223 235 231 224
166 170 169 166 167 167 168 168 158 152 161 172 182 185 186 197 205 200 207 230 240 235 232 234 228 228 242 233 227 225 208 215 225 215 207 207 213 212 200 205 231 249 248
168 170 166 158 151 156 168 154 154 156 162 180 190 190 188 193 200 212 222 227 228 244 236 228 223 226 248 238 228 209 193 214 231 227 217 205 210 220 205 193 220 257 270
148 148 142 130 137 159 156 144 158 161 186 202 204 196 189 193 202 214 222 226 222 238 242 239 232 226 241 241 221 194 182 205 232 247 236 218 214 219 207 193 202 234 254
146 142 141 148 163 164 146 155 173 197 213 210 202 199 200 200 205 212 218 221 227 243 253 251 249 236 233 235 221 202 185 195 212 230 243 238 225 222 217 205 206 225 233
130 138 143 157 175 168 158 172 200 212 204 198 202 209 213 220 216 208 222 221 215 235 251 251 262 255 238 231 226 214 210 201 199 219 229 235 232 232 231 224 230 230 226
146 153 156 163 186 182 169 188 218 208 188 190 216 223 222 228 219 208 215 227 221 223 238 238 248 255 246 240 231 223 222 216 213 225 226 229 234 238 242 244 244 229 204
164 174 166 172 199 204 191 198 214 206 187 204 229 234 231 238 233 221 214 216 220 226 234 235 244 249 241 234 222 214 218 225 229 238 240 247 242 237 243 254 249 223 206
181 183 188 193 205 198 198 208 208 199 202 214 226 240 239 235 234 231 227 225 227 218 223 234 229 224 234 232 209 192 200 202 203 177 176 220 227 237 251 253 247 235 221
196 200 210 205 200 193 203 216 214 197 195 213 228 237 240 240 234 236 257 253 243 241 236 237 232 233 230 222 208 207 210 204 180 155 196 222 227 228 232 240 253 243 232